カタログに戻る

MMS 2

運用中科学HEO
NORAD 40483·PAYLOAD·🇺🇸 United States

打ち上げ Mar 13, 2015 から Cape Canaveral Space Force Station

Loading…

次のパス (今後24時間)

TLE

最新Source: Space-Track

元期: Sep 14, 2026, 16:00 UTC

1 40483U 15011B   26257.66671296 -.00001854  00000-0  00000-0 0  9991
2 40483  72.9574 347.7727 8259704 169.3948  66.2148  0.28336106  1419

AllMySatでMMS 2をリアルタイム追跡

Download on the App Store